Weather History for West Palm Beach, FL

Change the Weather History Date:

Friday, September 27, 2013

  Actual Average Record
Temperature  
Mean Temperature 81 °F 81 °F  
Max Temperature 89 °F 87 °F 95 °F (1910)
Min Temperature 73 °F 75 °F 68 °F (1983)
Degree Days  
Heating Degree Days 0 0  
Month to date heating degree days 0 0  
Since 1 July heating degree days 0 0  
Cooling Degree Days 16 16  
Month to date cooling degree days 454 453  
Year to date cooling degree days 3325 3159  
Growing Degree Days 31 (Base 50)    
Moisture  
Dew Point 71 °F    
Average Humidity 75    
Maximum Humidity 94    
Minimum Humidity 55    
Precipitation  
Precipitation 0.02 in 0.26 in 4.10 in (1947)
Month to date precipitation 9.07 7.60  
Year to date precipitation 56.69 48.32  
Snow  
Snow 0.00 in - - ()
Month to date snowfall 0.0  
Since 1 July snowfall 0.0  
Since 1 September snowfall 0.0  
Snow Depth 0.00 in    
Sea Level Pressure  
Sea Level Pressure 29.86 in    
Wind  
Wind Speed 7 mph (North)    
Max Wind Speed 17 mph    
Max Gust Speed 20 mph    
Visibility 10 miles    
Events      
T = Trace of Precipitation, MM = Missing Value Source: NWS Daily Summary

Daily Weather History Graph

Daily Weather History Graph

Search for Another Location

Airport:

Trip Planner

Search our weather history database for the weather conditions in past years. The results will help you decide how hot, cold, wet, or windy it might be!

Date:

Astronomy

Sep. 27, 2013 Rise Set
Actual Time 7:11 AM EDT 7:10 PM EDT
Civil Twilight 6:48 AM EDT 7:34 PM EDT
Nautical Twilight 6:21 AM EDT 8:00 PM EDT
Astronomical Twilight 5:54 AM EDT 8:27 PM EDT
Moon 12:35 AM EDT (9/27) 2:19 PM EDT (9/27)
Length of Visible Light 12h 45m
Length of Day
11h 59m
Last Quarter, 45% of the Moon is Illuminated
Sep 27
Last Quarter
Oct 4
New
Oct 11
First Quarter
Oct 18
Full
Oct 26
Last Quarter

Hourly Weather History & Observations

Time (EDT) Temp. Heat Index Dew Point Humidity Pressure Visibility Wind Dir Wind Speed Gust Speed Precip Events Conditions
12:53 AM 78.1 °F - 73.9 °F 87% 29.85 in 10.0 mi NW 4.6 mph - N/A   Partly Cloudy
1:53 AM 78.1 °F - 73.0 °F 84% 29.84 in 10.0 mi NNW 4.6 mph - N/A   Clear
2:53 AM 77.0 °F - 73.0 °F 88% 29.83 in 10.0 mi NW 5.8 mph - N/A   Clear
3:53 AM 75.9 °F - 73.0 °F 91% 29.82 in 10.0 mi NW 5.8 mph - N/A   Clear
4:53 AM 75.0 °F - 72.0 °F 90% 29.82 in 10.0 mi NW 4.6 mph - N/A   Clear
5:53 AM 73.9 °F - 71.1 °F 91% 29.83 in 10.0 mi WNW 5.8 mph - N/A   Partly Cloudy
6:53 AM 73.9 °F - 72.0 °F 93% 29.85 in 10.0 mi NW 9.2 mph - N/A   Scattered Clouds
7:25 AM 73.4 °F - 71.6 °F 94% 29.85 in 10.0 mi NW 5.8 mph - N/A   Scattered Clouds
7:53 AM 75.0 °F - 72.0 °F 90% 29.86 in 10.0 mi WNW 5.8 mph - N/A   Scattered Clouds
8:53 AM 78.1 °F - 73.0 °F 84% 29.88 in 10.0 mi NW 6.9 mph - N/A   Scattered Clouds
9:53 AM 81.0 °F 85.2 °F 72.0 °F 74% 29.88 in 10.0 mi NNW 9.2 mph - N/A   Scattered Clouds
10:53 AM 84.0 °F 89.0 °F 71.1 °F 65% 29.89 in 10.0 mi NNW 9.2 mph - N/A   Scattered Clouds
11:53 AM 86.0 °F 89.4 °F 68.0 °F 55% 29.89 in 10.0 mi NNW 11.5 mph - N/A   Scattered Clouds
12:53 PM 86.0 °F 90.7 °F 70.0 °F 59% 29.88 in 10.0 mi North 8.1 mph - N/A   Mostly Cloudy
1:53 PM 86.0 °F 91.5 °F 71.1 °F 61% 29.86 in 10.0 mi NE 11.5 mph - N/A   Mostly Cloudy
2:53 PM 86.0 °F 90.1 °F 69.1 °F 57% 29.84 in 10.0 mi NNE 8.1 mph - N/A   Scattered Clouds
3:53 PM 86.0 °F 90.7 °F 70.0 °F 59% 29.84 in 10.0 mi NE 15.0 mph - N/A   Scattered Clouds
4:53 PM 87.1 °F 91.3 °F 69.1 °F 55% 29.84 in 10.0 mi NNE 9.2 mph - N/A   Scattered Clouds
5:53 PM 84.9 °F 89.4 °F 70.0 °F 61% 29.86 in 10.0 mi NNE 9.2 mph - N/A   Scattered Clouds
6:53 PM 82.9 °F 87.5 °F 71.1 °F 67% 29.87 in 10.0 mi NNE 9.2 mph - N/A   Scattered Clouds
7:53 PM 82.9 °F 87.5 °F 71.1 °F 67% 29.88 in 10.0 mi NNE 8.1 mph - N/A   Scattered Clouds
8:53 PM 82.0 °F 86.3 °F 71.1 °F 69% 29.90 in 10.0 mi NNE 4.6 mph - N/A   Scattered Clouds
9:53 PM 82.9 °F 87.5 °F 71.1 °F 67% 29.91 in 10.0 mi ENE 5.8 mph - N/A   Scattered Clouds
10:53 PM 82.9 °F 87.0 °F 70.0 °F 65% 29.91 in 10.0 mi NE 4.6 mph - N/A   Scattered Clouds
11:53 PM 78.1 °F - 69.1 °F 74% 29.91 in 10.0 mi Calm Calm - 0.02 in   Mostly Cloudy